Regional Weather Roundup
Issued by NWS

Home | Current Version | Previous Version | Graphics & Text | Print | Product List | Glossary On
Versions: 1 2 3 4 5 6 7 8 9 10 11 12 13 14 15 16 17 18 19 20 21 22 23 24 25 26 27 28
000
ASUS45 KSLC 151410
RWRUT

UTAH REGIONAL WEATHER ROUNDUP
NATIONAL WEATHER SERVICE SALT LAKE CITY UT
700 AM MST SUN JAN 15 2017

UTZ001>011-023>025-151500-

NORTHERN UTAH

CITY           SKY/WX    TMP DP  RH WIND       PRES   REMARKS
BRIGHAM CITY     N/A     14  11  87 CALM      30.17S
HILL AFB       PTCLDY    21  14  73 E20       30.14S WCI   6
LOGAN          CLOUDY    10   7  87 N3        30.21S FOG
OGDEN          PTCLDY    22  15  75 SE12      30.15S WCI  10
SALT LAKE CITY CLOUDY    29  23  78 W6        30.16S WCI  23
TOOELE VALLEY  CLOUDY    30  28  93 SE6       30.17S WCI  24
WENDOVER       CLEAR     21  19  93 CALM      30.16F
HEBER CITY     CLOUDY    14  10  85 CALM      30.15F
WEST JORDAN    MOCLDY    25  25 100 CALM      30.15S

$$

UTZ011>015-024>027-151500-

CENTRAL/NORTHEAST UTAH

CITY           SKY/WX    TMP DP  RH WIND       PRES   REMARKS
PROVO AIRPORT  CLOUDY    28  22  78 N7        30.15S WCI  21
MOAB/CANYONLAN MIX PCPN  36  36 100 NW7       30.00R WCI  30
DELTA          CLOUDY    28  27  93 N6        30.14R WCI  22
PRICE          CLOUDY    35  26  69 NE6       30.00S WCI  30
RICHFIELD      CLOUDY    30  30 100 NE5       30.12S FOG     WCI  25
ROOSEVELT      CLOUDY    27  21  80 CALM      30.15S
VERNAL         CLOUDY    23  20  88 W5        30.11F WCI  17

$$

UTZ013>016-019>022-027-151500-

SOUTHERN UTAH

CITY           SKY/WX    TMP DP  RH WIND       PRES   REMARKS
BRYCE CANYON   FLURRIES  25  23  92 NW6       30.00S WCI  18
CEDAR CITY     CLOUDY    28  26  92 N9        30.06S FOG     WCI  19
MILFORD        CLOUDY    29  26  89 N12       30.10F WCI  19
ST GEORGE      CLOUDY    41  30  65 S8        30.06S
HANKSVILLE     CLOUDY    36  36 100 MISG      30.05S
KANAB          CLOUDY    37  36  93 N7        30.03S WCI  32
BLANDING       CLOUDY    38  37  95 N7        30.01S WCI  33

$$

REGIONAL REPORTS     COLORADO/ARIZONA

CITY           SKY/WX    TMP DP  RH WIND       PRES   REMARKS
CRAIG, CO      CLOUDY    25  22  88 NE5       30.09F WCI  19
GRAND JUNCTION CLOUDY    32  32 100 NE3       30.00F
RIFLE, CO      CLOUDY    31  29  92 SE3       30.04F
MONTROSE, CO   FOG       32  32 100 NE3       30.03S VSB 1
CORTEZ, CO     CLOUDY    39  37  92 CALM      29.94F
COLORADO CITY  CLOUDY    37  34  87 NW3       30.03S
PAGE, AZ       CLOUDY    42  36  79 CALM      29.97S
GRAND CANYON   FOG       33  33 100 NW3       29.98R VSB 3/4
KINGMAN, AZ    CLOUDY    42  36  79 E8        29.98S
FLAGSTAFF, AZ  CLOUDY    31  31 100 CALM      29.95S

$$

REGIONAL REPORTS    NEVADA/IDAHO/WYOMING

CITY           SKY/WX    TMP DP  RH WIND       PRES   REMARKS
LAS VEGAS, NV  PTCLDY    48  29  47 NE10      30.02R
ELY, NY        CLOUDY    24  21  88 N6        30.11S WCI  17
ELKO, NV       CLOUDY    25  20  81 E3        30.17S
POCATELLO, ID  CLOUDY     2  -2  83 CALM      30.23S
BURLEY, ID     PTCLDY     6   0  76 CALM      30.26R
FORT BRIDGER,  FOG        1  -1  91 CALM      30.16F VSB 1/4
EVANSTON, WY   FOG        2  -2  83 CALM      30.10F VSB 3/4
ROCK SPRINGS,  FOG        9   5  84 CALM      30.14F VSB 1/4

$$




USA.gov is the U.S. government's official web portal to all federal, state and local government web resources and services.